Weather History for Kearney, NE

Change the Weather History Date:

Friday, September 13, 2013

  Actual Average Record
Temperature  
Mean Temperature 62 °F 65 °F  
Max Temperature 72 °F 78 °F 97 °F (1931)
Min Temperature 52 °F 51 °F 31 °F (1974)
Degree Days  
Heating Degree Days 3 3  
Month to date heating degree days 28  
Since 1 July heating degree days 45  
Cooling Degree Days 0 3  
Month to date cooling degree days 55  
Year to date cooling degree days 833  
Growing Degree Days 11 (Base 50)    
Moisture  
Dew Point 51 °F    
Average Humidity 65    
Maximum Humidity 89    
Minimum Humidity 41    
Precipitation  
Precipitation 0.00 in - 1.99 in (1985)
Sea Level Pressure  
Sea Level Pressure 30.18 in    
Wind  
Wind Speed 6 mph (SE)    
Max Wind Speed 14 mph    
Max Gust Speed 18 mph    
Visibility 10 miles    
Events      
T = Trace of Precipitation, MM = Missing Value Source: NWS Daily Summary

Daily Weather History Graph

Daily Weather History Graph

Search for Another Location

Airport:

Trip Planner

Search our weather history database for the weather conditions in past years. The results will help you decide how hot, cold, wet, or windy it might be!

Date:

Astronomy

Sep. 13, 2013 Rise Set
Actual Time 7:15 AM CDT 7:47 PM CDT
Civil Twilight 6:47 AM CDT 8:15 PM CDT
Nautical Twilight 6:14 AM CDT 8:47 PM CDT
Astronomical Twilight 5:41 AM CDT 9:21 PM CDT
Moon 3:40 PM CDT (9/13) 12:44 AM CDT (9/13)
Length of Visible Light 13h 27m
Length of Day
12h 32m
First Quarter, 61% of the Moon is Illuminated
Sep 13
First Quarter
Sep 19
Full
Sep 26
Last Quarter
Oct 4
New
Oct 11
First Quarter

Hourly Weather History & Observations

Time (CDT) Temp. Dew Point Humidity Pressure Visibility Wind Dir Wind Speed Gust Speed Precip Events Conditions
12:15 AM 57.2 °F 53.6 °F 88% 30.24 in 10.0 mi East 6.9 mph - N/A   Unknown
12:35 AM 57.2 °F 53.6 °F 88% 30.24 in 10.0 mi ENE 5.8 mph - N/A   Unknown
12:55 AM 57.2 °F 53.6 °F 88% 30.24 in 10.0 mi ENE 4.6 mph - N/A   Unknown
1:15 AM 57.2 °F 53.6 °F 88% 30.24 in 10.0 mi Calm Calm - N/A   Unknown
1:35 AM 57.2 °F 53.6 °F 88% 30.24 in 10.0 mi East 3.5 mph - N/A   Unknown
1:55 AM 57.2 °F 53.6 °F 88% 30.24 in 10.0 mi Calm Calm - N/A   Unknown
2:15 AM 57.2 °F 51.8 °F 82% 30.24 in 10.0 mi Calm Calm - N/A   Unknown
2:35 AM 57.2 °F 51.8 °F 82% 30.24 in 10.0 mi NE 4.6 mph - N/A   Unknown
2:55 AM 55.4 °F 51.8 °F 88% 30.23 in 10.0 mi NE 4.6 mph - N/A   Unknown
3:15 AM 53.6 °F 51.8 °F 94% 30.23 in 10.0 mi NE 5.8 mph - N/A   Unknown
3:35 AM 53.6 °F 51.8 °F 94% 30.23 in 10.0 mi ENE 3.5 mph - N/A   Unknown
3:55 AM 55.4 °F 51.8 °F 88% 30.22 in 10.0 mi East 3.5 mph - N/A   Unknown
4:15 AM 55.4 °F 51.8 °F 88% 30.23 in 10.0 mi Calm Calm - N/A   Unknown
4:35 AM 55.4 °F 50.0 °F 82% 30.22 in 10.0 mi NE 3.5 mph - N/A   Unknown
4:55 AM 55.4 °F 51.8 °F 88% 30.23 in 10.0 mi Calm Calm - N/A   Unknown
5:15 AM 55.4 °F 50.0 °F 82% 30.23 in 10.0 mi Calm Calm - N/A   Unknown
5:35 AM 55.4 °F 50.0 °F 82% 30.23 in 10.0 mi Calm Calm - N/A   Unknown
5:55 AM 55.4 °F 50.0 °F 82% 30.23 in 10.0 mi Calm Calm - N/A   Unknown
6:15 AM 55.4 °F 50.0 °F 82% 30.23 in 10.0 mi Calm Calm - N/A   Unknown
6:35 AM 55.4 °F 50.0 °F 82% 30.23 in 10.0 mi Calm Calm - N/A   Unknown
6:55 AM 51.8 °F 48.2 °F 88% 30.23 in 10.0 mi NE 3.5 mph - N/A   Unknown
7:15 AM 51.8 °F 48.2 °F 88% 30.23 in 10.0 mi ENE 3.5 mph - N/A   Unknown
7:35 AM 51.8 °F 48.2 °F 88% 30.23 in 10.0 mi Calm Calm - N/A   Unknown
7:55 AM 53.6 °F 50.0 °F 88% 30.23 in 10.0 mi Calm Calm - N/A   Unknown
8:15 AM 55.4 °F 51.8 °F 88% 30.24 in 10.0 mi Calm Calm - N/A   Unknown
8:35 AM 55.4 °F 51.8 °F 88% 30.24 in 10.0 mi Calm Calm - N/A   Unknown
8:55 AM 57.2 °F 51.8 °F 82% 30.24 in 9.0 mi SE 3.5 mph - N/A   Unknown
9:15 AM 59.0 °F 53.6 °F 82% 30.25 in 7.0 mi Calm Calm - N/A   Unknown
9:35 AM 60.8 °F 53.6 °F 77% 30.25 in 9.0 mi SSE 8.1 mph - N/A   Unknown
9:55 AM 64.4 °F 51.8 °F 64% 30.24 in 10.0 mi SSE 10.4 mph - N/A   Unknown
10:15 AM 66.2 °F 51.8 °F 60% 30.23 in 10.0 mi South 15.0 mph - N/A   Unknown
10:35 AM 66.2 °F 50.0 °F 56% 30.23 in 10.0 mi SSE 13.8 mph - N/A   Unknown
10:55 AM 68.0 °F 48.2 °F 49% 30.23 in 10.0 mi South 13.8 mph - N/A   Unknown
11:15 AM 69.8 °F 48.2 °F 46% 30.23 in 10.0 mi SSE 11.5 mph - N/A   Unknown
11:35 AM 69.8 °F 48.2 °F 46% 30.22 in 10.0 mi SSE 13.8 mph 18.4 mph N/A   Unknown
11:55 AM 69.8 °F 46.4 °F 43% 30.22 in 10.0 mi SSE 13.8 mph - N/A   Unknown
12:15 PM 69.8 °F 46.4 °F 43% 30.21 in 10.0 mi SE 13.8 mph - N/A   Unknown
12:35 PM 69.8 °F 46.4 °F 43% 30.21 in 10.0 mi SSE 11.5 mph - N/A   Unknown
12:55 PM 71.6 °F 46.4 °F 41% 30.20 in 10.0 mi SSE 10.4 mph - N/A   Unknown
1:15 PM 71.6 °F 48.2 °F 43% 30.20 in 10.0 mi South 11.5 mph - N/A   Unknown
1:35 PM 69.8 °F 46.4 °F 43% 30.19 in 10.0 mi South 12.7 mph - N/A   Unknown
1:55 PM 71.6 °F 46.4 °F 41% 30.19 in 10.0 mi South 12.7 mph - N/A   Unknown
2:15 PM 71.6 °F 46.4 °F 41% 30.17 in 10.0 mi South 10.4 mph - N/A   Unknown
2:35 PM 69.8 °F 46.4 °F 43% 30.17 in 10.0 mi South 12.7 mph - N/A   Unknown
2:55 PM 69.8 °F 48.2 °F 46% 30.17 in 10.0 mi South 9.2 mph - N/A   Unknown
3:15 PM 69.8 °F 48.2 °F 46% 30.15 in 10.0 mi SSW 11.5 mph - N/A   Unknown
3:35 PM 69.8 °F 48.2 °F 46% 30.15 in 10.0 mi SSW 11.5 mph - N/A   Unknown
3:55 PM 69.8 °F 48.2 °F 46% 30.14 in 10.0 mi South 6.9 mph - N/A   Unknown
4:15 PM 71.6 °F 48.2 °F 43% 30.13 in 10.0 mi South 9.2 mph - N/A   Unknown
4:35 PM 69.8 °F 48.2 °F 46% 30.13 in 10.0 mi South 8.1 mph - N/A   Unknown
4:55 PM 69.8 °F 50.0 °F 49% 30.12 in 10.0 mi South 6.9 mph - N/A   Unknown
5:15 PM 69.8 °F 50.0 °F 49% 30.12 in 10.0 mi South 8.1 mph - N/A   Unknown
5:35 PM 69.8 °F 51.8 °F 53% 30.11 in 10.0 mi South 6.9 mph - N/A   Unknown
5:55 PM 68.0 °F 51.8 °F 56% 30.10 in 10.0 mi South 8.1 mph - N/A   Unknown
6:15 PM 68.0 °F 51.8 °F 56% 30.10 in 10.0 mi SSW 4.6 mph - N/A   Unknown
6:35 PM 68.0 °F 51.8 °F 56% 30.09 in 10.0 mi South 6.9 mph - N/A   Unknown
6:55 PM 68.0 °F 51.8 °F 56% 30.09 in 10.0 mi South 5.8 mph - N/A   Unknown
7:15 PM 66.2 °F 51.8 °F 60% 30.09 in 10.0 mi South 3.5 mph - N/A   Unknown
7:35 PM 66.2 °F 51.8 °F 60% 30.08 in 10.0 mi SSE 5.8 mph - N/A   Unknown
7:55 PM 64.4 °F 53.6 °F 68% 30.08 in 10.0 mi SSE 4.6 mph - N/A   Unknown
8:15 PM 64.4 °F 53.6 °F 68% 30.08 in 10.0 mi SE 4.6 mph - N/A   Unknown
8:35 PM 62.6 °F 53.6 °F 72% 30.08 in 10.0 mi ESE 4.6 mph - N/A   Unknown
8:55 PM 62.6 °F 53.6 °F 72% 30.09 in 10.0 mi ESE 5.8 mph - N/A   Unknown
9:15 PM 62.6 °F 53.6 °F 72% 30.09 in 10.0 mi ESE 6.9 mph - N/A   Unknown
9:35 PM 62.6 °F 53.6 °F 72% 30.09 in 10.0 mi SE 6.9 mph - N/A   Unknown
9:55 PM 62.6 °F 53.6 °F 72% 30.09 in 10.0 mi SSE 5.8 mph - N/A   Unknown
10:15 PM 62.6 °F 53.6 °F 72% 30.09 in 10.0 mi SSE 6.9 mph - N/A   Unknown
10:35 PM 62.6 °F 53.6 °F 72% 30.08 in 10.0 mi SE 6.9 mph - N/A   Unknown
10:55 PM 60.8 °F 53.6 °F 77% 30.08 in 10.0 mi SE 6.9 mph - N/A   Unknown
11:15 PM 60.8 °F 53.6 °F 77% 30.08 in 10.0 mi SE 6.9 mph - N/A   Unknown
11:35 PM 60.8 °F 53.6 °F 77% 30.07 in 10.0 mi SE 8.1 mph - N/A   Unknown
11:55 PM 60.8 °F 53.6 °F 77% 30.07 in 10.0 mi SE 6.9 mph - N/A   Unknown